Location: Killam
(52.7910°N, 111.8608°W)
Time: 23:36:03
(UTC+00:00)

DIWATA 2B (PO-101) - Visible Passes

Search period start: 01 December 2023 00:00
Search period end: 11 December 2023 00:00
Orbit: 579 x 591 km, 98.0° (Epoch: 01 December)

Date Brightness Start Highest point End Pass type
(mag) Time Alt. Az. Time Alt. Az. Time Alt. Az.
01 Dec ? 00:06:15 10° N 00:10:18 50° WNW 00:14:21 10° SW visible
02 Dec ? 00:12:42 10° N 00:16:42 44° WNW 00:20:39 10° SW visible
03 Dec ? 00:19:10 10° N 00:23:04 38° WNW 00:26:56 10° SW visible
04 Dec ? 00:25:38 10° N 00:29:26 34° WNW 00:33:13 10° SW visible
05 Dec ? 00:32:06 10° N 00:35:47 30° WNW 00:39:27 10° SW visible
06 Dec ? 00:38:34 10° N 00:42:07 27° WNW 00:45:40 10° WSW visible
07 Dec ? 00:45:04 10° N 00:48:27 24° WNW 00:51:50 10° WSW visible
08 Dec ? 00:51:33 10° N 00:54:47 22° WNW 00:58:00 10° WSW visible
09 Dec ? 00:58:03 10° NNW 01:01:05 20° WNW 01:04:07 10° WSW visible
10 Dec ? 01:04:33 10° NNW 01:07:23 18° WNW 01:10:12 10° W visible
